STARLINK-1741, 46567

Orbit data source: Space-Track

STARLINK-1741, 46567 is a payload satellite owned by SpaceX/Seattle (US) in LEO that was launched on Tue, 06 Oct 2020 UTC via an FALCON 9 launch vehicle from the Air Force Eastern Test Range (AFETR). Payload-class satellites include a variety of spacecraft equipped with specific instruments for various scientific and technological missions. These include communications satellites like Starlink; space stations such as the ISS; scientific satellites like the Hubble; Earth observation satellites from companies like Planet Labs, Umbra, and HawkEye 360; GPS; miniature CubeSats for education and research; and military/defense satellites.

Loading next visibility...
Identifier
46567, 2020-070AM
Orbit
LEO
Country
Flag of USUS
Related business
Manufacturer
SpaceX/Seattle
Mission
Partially operational Commercial Communications
Bus & Motor
STARLINK, Unknown motor
Mass
260 kg wet, ~248 kg dry
Launch date (UTC)
2020-10-06 (5 years ago)
Launch vehicle
FALCON 9
Launch site
Air Force Eastern Test Range (AFETR)
Object type
Payload
Rocket body
Debris
Shape & HBR
Box + 1 Pan, 10.1 m
Radar Cross Section
13.562 m², Large (>1 m²)

Expand to show TLE details & history
Last TLE update: 15 hours ago

TLE from 15 hours ago
0 STARLINK-1741
1 46567U 20070AM  25341.17636080  .00042623  00000-0  10531-2 0  9992
2 46567  53.0499 202.9076 0008525 134.2387 225.9318 15.40060251285979
Epoch: 2025-12-07T04:13Z
TLE epoch observation values (Epoch: 2025-12-07T04:13:57.573Z)
Latitude
0.00001°
Longitude
63.22422°
Altitude
450.872 km
Speed
7.641 km/s
True Right ascension
13h 31m 37s
True Declination
0° 00' 00"
Sunlit
Object was in daylight at epoch
Visualization orbit readout
Latitude
Unknown
Longitude
Unknown
Altitude
Unknown
Speed
Unknown
Apparent Right ascension
Unknown
Apparent Declination
Unknown
Sunlit
N/A
Visualization observer readout
Local Sidereal Time
17:10:15
Azimuth
Unknown
Elevation
Unknown
Doppler factor
Unknown
Orbital elements
Apogee altitude
452.024 km
Perigee altitude
440.389 km
Semi-major axis
6,824.344 km
Eccentricity
0.00085
Inclination
53.0499°
RAAN
202.9076°
Arg. of periapsis
134.2387°
True anomaly
225.86166°
Mean anomaly
225.9318°
Eccentric anomaly
225.89673°
Mean motion
3.84992 °/min
Orbital period
93.51 mins
BSTAR
0.0010531
Loading maneuver chart data...
Computing Atmospheric mass density...

Documentation

Showing up to 5 results
|